Dewpoint
-8 -8 -8 -9 -9 -10 -10 -11 -11 -11 -12 -12 -12 -11 -11 -11 -11 -11 -11 -11 -12 -13 -14 -15 -15 -16 -16 -16 -17 -17 -17 -17 -17 -17 -17 -17 -17 -17 -17 -17 -18 -18
-9 -9 -9 -10 -10 -10 -11 -11 -11 -11 -11 -11 -11 -11 -11 -11 -10 -10 -11 -11 -11 -11 -12 -12 -13 -14 -14 -14 -15 -15 -15 -16 -16 -16 -16 -16 -16 -16 -16 -16 -17 -17
-10 -10 -10 -10 -11 -11 -11 -11 -11 -11 -11 -11 -11 -11 -10 -10 -10 -10 -10 -10 -11 -11 -11 -11 -12 -12 -12 -12 -13 -13 -13 -14 -14 -14 -14 -15 -15 -15 -15 -15 -15 -15
-10 -10 -10 -11 -10 -11 -11 -11 -11 -10 -10 -10 -10 -10 -10 -10 -10 -10 -10 -10 -10 -11 -11 -11 -11 -11 -11 -11 -12 -12 -12 -12 -13 -13 -13 -14 -14 -14 -14 -14 -14 -15
-10 -10 -10 -10 -10 -10 -10 -10 -10 -10 -10 -10 -10 -10 -10 -10 -10 -10 -10 -10 -10 -10 -10 -11 -11 -11 -11 -11 -11 -11 -12 -12 -12 -12 -13 -13 -13 -14 -14 -14 -14 -14
-10 -10 -10 -10 -10 -10 -10 -10 -10 -9 -9 -9 -9 -9 -9 -9 -10 -10 -10 -10 -10 -10 -10 -10 -10 -11 -11 -11 -11 -11 -11 -12 -12 -12 -12 -12 -13 -13 -13 -14 -14 -14
-10 -10 -10 -10 -10 -10 -9 -10 -10 -10 -9 -10 -9 -9 -10 -9 -9 -10 -10 -10 -10 -10 -10 -10 -10 -11 -11 -11 -11 -11 -11 -11 -12 -12 -12 -13 -13 -13 -13 -14 -14 -14
-10 -10 -10 -10 -10 -10 -10 -10 -10 -10 -10 -10 -10 -10 -10 -10 -10 -10 -10 -10 -10 -10 -10 -10 -11 -11 -11 -11 -11 -11 -11 -12 -12 -12 -12 -12 -13 -13 -13 -13 -14 -14
-10 -10 -10 -10 -10 -10 -10 -10 -10 -10 -10 -10 -10 -10 -10 -10 -10 -11 -11 -11 -11 -11 -11 -11 -11 -11 -11 -11 -11 -11 -12 -12 -12 -12 -12 -12 -13 -13 -13 -13 -13 -14
-10 -10 -10 -10 -10 -10 -10 -10 -10 -10 -10 -11 -11 -11 -11 -11 -11 -11 -11 -11 -11 -11 -11 -11 -11 -11 -11 -11 -11 -11 -12 -12 -12 -12 -12 -13 -13 -13 -13 -13 -14 -13
-11 -10 -11 -11 -10 -11 -11 -11 -11 -11 -11 -11 -11 -11 -11 -11 -11 -11 -11 -11 -11 -11 -11 -11 -11 -11 -11 -11 -11 -11 -11 -12 -12 -12 -12 -13 -13 -13 -13 -13 -13 -14
-12 -12 -11 -11 -11 -11 -11 -11 -11 -11 -11 -11 -11 -11 -11 -11 -11 -11 -11 -11 -11 -11 -11 -11 -11 -11 -11 -11 -11 -11 -11 -11 -11 -12 -12 -12 -13 -13 -13 -13 -13 -13
-14 -13 -13 -12 -12 -12 -11 -11 -11 -11 -11 -11 -11 -10 -10 -10 -10 -10 -10 -10 -10 -10 -10 -10 -10 -10 -11 -11 -10 -11 -11 -11 -11 -11 -12 -12 -13 -13 -13 -13 -13 -13
-15 -15 -15 -15 -14 -14 -14 -14 -14 -13 -13 -13 -13 -12 -12 -11 -11 -11 -10 -10 -10 -10 -10 -10 -10 -10 -10 -10 -10 -10 -11 -11 -11 -11 -12 -12 -12 -13 -13 -13 -13 -13
-16 -16 -16 -16 -16 -16 -16 -16 -16 -16 -16 -16 -15 -15 -15 -14 -14 -13 -12 -12 -11 -10 -10 -10 -10 -10 -10 -10 -10 -10 -11 -11 -11 -11 -12 -12 -12 -12 -12 -13 -13 -13
-17 -17 -17 -17 -17 -17 -17 -17 -17 -17 -16 -16 -16 -16 -16 -16 -16 -16 -15 -15 -14 -13 -12 -11 -10 -10 -10 -10 -10 -10 -10 -11 -11 -11 -11 -12 -12 -12 -12 -12 -12 -12
-17 -17 -17 -17 -17 -17 -17 -18 -18 -18 -17 -18 -17 -17 -17 -16 -16 -16 -16 -15 -15 -15 -14 -14 -12 -11 -10 -10 -10 -10 -11 -11 -11 -11 -11 -11 -11 -11 -11 -12 -12 -12
-18 -18 -18 -19 -19 -19 -19 -19 -19 -20 -19 -19 -19 -19 -18 -18 -17 -17 -17 -16 -16 -15 -15 -15 -14 -13 -12 -12 -11 -11 -10 -11 -11 -11 -11 -11 -11 -11 -11 -11 -12 -12
-20 -20 -20 -20 -21 -20 -21 -21 -21 -21 -21 -21 -21 -20 -20 -20 -19 -19 -18 -17 -17 -16 -16 -15 -15 -14 -14 -14 -13 -12 -12 -11 -11 -11 -11 -11 -11 -11 -11 -11 -11 -11
-21 -21 -21 -21 -21 -21 -21 -21 -21 -21 -21 -21 -21 -21 -21 -21 -20 -20 -19 -18 -17 -17 -16 -16 -16 -15 -15 -15 -14 -14 -14 -13 -13 -12 -12 -11 -11 -10 -10 -10 -10 -11
-21 -21 -22 -21 -22 -22 -22 -22 -22 -22 -22 -22 -22 -22 -22 -21 -21 -21 -20 -19 -18 -17 -17 -17 -16 -15 -15 -15 -15 -15 -14 -14 -14 -14 -13 -13 -12 -12 -11 -10 -10 -10
-22 -23 -23 -22 -22 -22 -22 -22 -22 -22 -22 -22 -22 -22 -22 -22 -22 -22 -21 -21 -20 -19 -18 -17 -17 -15 -15 -15 -15 -15 -15 -14 -14 -14 -14 -14 -14 -13 -13 -12 -12 -11
-23 -24 -24 -23 -23 -23 -23 -23 -23 -23 -23 -24 -24 -24 -23 -24 -23 -23 -23 -22 -22 -21 -19 -19 -18 -16 -15 -15 -15 -15 -15 -15 -14 -14 -14 -14 -14 -14 -14 -14 -13 -12
-24 -25 -26 -26 -26 -26 -26 -25 -25 -25 -26 -26 -26 -26 -26 -26 -26 -26 -25 -24 -24 -23 -21 -19 -19 -18 -16 -16 -16 -15 -15 -15 -15 -15 -15 -15 -15 -15 -14 -14 -14 -14
-25 -26 -28 -28 -28 -28 -28 -28 -28 -28 -28 -28 -28 -28 -28 -28 -27 -26 -26 -26 -25 -24 -22 -19 -18 -18 -18 -17 -17 -16 -16 -16 -15 -15 -15 -15 -15 -15 -15 -15 -14 -14
-25 -26 -28 -29 -29 -30 -29 -29 -29 -29 -29 -29 -29 -29 -29 -28 -25 -24 -26 -27 -26 -25 -24 -21 -18 -18 -18 -19 -18 -17 -16 -16 -16 -16 -16 -16 -15 -15 -15 -15 -14 -14
Wind_Speed
32 33 34 34 34 34 34 33 33 33 33 33 32 31 30 29 28 28 29 30 31 32 32 32 32 31 31 31 31 31 31 31 30 29 29 29 29 28 28 28 27 28
30 31 32 33 33 32 32 32 32 32 32 32 31 31 30 29 28 28 29 29 29 29 29 30 30 30 31 31 31 32 32 33 33 32 32 33 32 32 32 31 30 31
29 30 31 31 31 31 31 31 31 32 31 31 31 30 30 29 29 29 29 29 29 29 28 29 29 29 30 30 30 31 32 33 33 33 33 34 34 34 34 34 34 34
27 28 28 29 29 28 29 29 30 30 30 30 30 30 30 29 29 29 29 30 30 30 30 30 30 30 30 30 30 31 32 32 32 32 33 34 34 34 35 35 36 37
25 26 26 26 26 26 27 28 28 28 28 29 28 29 29 30 30 30 30 31 31 31 31 31 31 31 31 31 31 32 32 32 32 32 33 34 34 34 34 35 36 37
21 23 23 24 24 24 25 26 26 26 27 27 27 27 28 29 30 30 31 31 32 32 32 32 32 32 32 32 33 34 34 34 33 33 35 35 35 35 35 36 37 37
16 16 17 18 19 20 22 22 23 24 24 24 25 26 26 27 29 29 30 31 31 32 32 32 33 33 33 33 34 35 35 35 35 35 36 36 36 36 36 36 37 38
13 14 14 14 15 16 17 18 19 19 20 21 22 22 23 24 25 26 27 28 29 30 31 31 32 32 32 33 35 35 35 36 36 36 37 37 37 38 37 37 37 38
12 13 13 14 14 15 16 17 18 18 19 20 21 21 21 22 23 23 24 25 26 28 28 29 30 31 31 33 34 35 35 36 36 37 37 38 38 38 37 37 38 39
10 11 12 13 14 14 15 16 18 18 19 21 21 21 22 22 22 22 23 23 25 26 27 28 29 29 30 31 32 33 34 35 36 37 37 38 38 38 37 38 38 39
9 10 11 11 12 13 14 15 16 17 18 19 20 21 21 21 22 22 22 22 23 24 24 26 27 27 29 30 31 31 32 33 34 36 37 37 38 38 38 38 38 39
7 8 8 9 10 11 12 13 14 15 16 17 18 19 19 20 21 21 22 23 23 23 24 25 25 25 27 28 29 29 30 31 32 34 35 36 37 37 37 37 38 38
5 5 6 7 9 10 11 12 13 14 15 16 17 18 18 19 20 20 21 22 23 24 24 25 26 26 26 26 27 27 28 30 31 32 33 35 36 37 37 37 38 38
4 5 6 7 8 9 11 12 13 14 15 16 17 18 19 20 21 22 22 22 23 23 24 25 26 27 27 27 27 27 27 28 29 30 32 33 35 36 36 37 37 38
7 8 8 9 10 11 12 13 13 14 15 16 17 17 18 19 20 21 22 23 24 24 25 26 26 27 27 28 28 28 28 29 29 30 31 32 33 34 35 36 37 37
10 11 11 12 13 13 14 14 15 15 16 16 17 17 18 18 19 19 20 21 22 23 24 25 26 27 27 27 28 29 29 30 31 32 32 33 34 35 35 36 36 37
14 14 15 15 15 16 16 17 17 17 18 18 18 19 19 19 20 20 20 21 21 22 22 23 24 25 26 27 28 28 29 30 32 33 34 35 36 37 37 37 37 37
18 18 18 19 19 20 20 20 20 20 20 21 21 21 21 21 22 22 22 22 23 24 24 24 24 24 25 27 28 29 30 31 33 34 35 36 37 38 39 39 39 39
21 21 21 21 22 22 22 23 23 23 23 23 23 24 24 24 24 24 24 24 25 26 26 26 25 25 26 27 27 28 29 30 32 34 36 38 39 40 40 40 40 40
21 22 22 22 23 23 23 23 24 24 24 24 24 24 25 25 26 26 26 26 26 27 27 27 26 26 27 28 29 29 28 29 30 32 34 36 38 39 40 41 41 41
22 22 23 23 24 24 24 24 25 25 25 26 26 25 25 25 26 26 27 27 27 27 28 28 27 26 27 28 29 30 30 30 31 31 32 33 34 35 36 38 40 41
23 24 25 25 26 26 27 27 27 27 27 27 28 28 28 27 26 26 27 28 29 29 29 30 28 27 27 28 29 30 30 31 32 32 33 33 33 33 33 34 36 38
24 25 26 27 27 27 28 28 28 28 28 28 28 29 29 29 28 27 27 27 28 29 29 30 29 27 27 28 28 29 29 31 32 32 33 34 34 33 32 32 33 34
25 26 26 27 27 27 27 27 27 27 27 27 27 28 29 29 29 29 28 27 27 27 28 29 30 28 27 27 28 28 28 29 30 31 33 34 34 33 33 32 32 32
26 27 27 28 27 27 26 26 26 26 26 26 26 27 28 28 28 29 29 28 26 26 26 26 27 28 28 27 27 26 26 27 29 30 32 33 33 33 33 32 32 32
28 28 28 29 28 27 27 26 25 25 25 26 26 26 27 26 26 27 29 28 25 25 24 23 23 26 27 25 23 24 24 24 26 28 29 30 31 31 32 32 32 31
Wind_Direction
246 247 249 251 252 253 254 255 256 257 258 258 260 261 263 265 265 263 262 260 259 257 257 257 258 258 259 259 259 259 259 259 259 259 258 258 259 258 258 258 259 260
248 249 251 252 253 254 255 257 258 259 261 262 264 266 267 267 266 266 265 264 263 262 261 261 261 261 262 262 263 263 264 264 264 263 263 263 263 263 263 263 263 262
250 250 251 253 255 256 258 260 260 261 263 264 265 266 268 268 268 268 268 267 266 265 265 264 264 263 263 264 264 265 265 266 266 266 267 267 267 267 267 267 267 266
251 253 254 256 258 259 261 261 262 263 265 266 267 269 270 270 270 270 269 268 268 268 268 267 267 267 266 266 265 265 265 266 266 267 266 267 267 268 268 269 269 268
255 256 257 259 260 262 263 263 265 267 268 270 271 272 272 272 271 271 270 270 269 270 270 269 269 269 269 268 267 267 267 266 266 266 266 266 266 267 268 269 269 269
254 257 258 260 261 262 263 265 267 269 270 271 272 272 273 273 272 272 271 271 271 271 271 271 271 270 269 269 269 268 268 268 268 267 267 267 267 268 268 268 268 269
244 247 251 255 257 259 262 264 267 268 270 272 272 272 272 272 272 273 273 273 273 272 272 272 271 271 271 270 270 270 269 269 269 268 267 268 268 268 268 268 269 269
238 237 238 241 244 249 254 258 261 264 267 269 270 271 271 272 272 273 273 273 273 273 272 272 272 272 271 271 270 270 270 270 269 269 269 269 269 269 269 269 270 270
241 239 238 238 238 241 244 247 250 252 255 258 260 262 264 266 268 270 271 272 272 273 273 273 273 272 272 271 270 270 270 270 270 270 269 269 269 269 270 270 270 271
240 239 239 239 240 242 244 246 249 250 251 253 255 256 256 257 259 261 263 266 269 271 272 273 273 274 274 273 272 272 272 271 271 270 269 269 269 270 270 270 270 271
237 237 238 239 240 243 246 249 251 252 254 255 256 256 256 256 256 256 257 258 261 264 267 270 272 273 274 274 274 274 274 273 272 271 270 270 270 271 270 270 270 271
234 235 236 238 240 243 247 250 253 254 255 257 258 259 259 258 258 258 258 259 259 260 261 263 265 268 270 272 273 274 274 274 273 272 272 272 271 271 270 270 270 271
249 251 251 251 251 252 255 256 258 260 260 262 263 263 263 263 262 262 262 263 263 263 263 262 262 262 263 266 268 270 272 272 272 272 272 272 272 271 271 270 270 271
291 290 284 278 275 271 270 270 269 270 270 269 269 269 268 268 267 266 265 266 266 267 266 266 265 264 263 263 264 265 266 268 269 270 270 271 271 271 271 271 271 271
312 306 299 293 287 282 279 277 275 275 274 273 273 273 273 272 272 271 270 268 267 267 267 267 267 267 266 265 264 262 262 262 263 264 266 267 268 269 270 270 270 270
311 307 303 299 294 291 287 284 281 279 277 276 276 275 275 275 274 274 274 273 270 268 268 267 267 267 267 266 265 264 262 261 260 260 261 262 264 265 266 267 268 268
309 307 305 304 301 299 295 292 289 287 285 283 281 280 279 278 277 276 276 276 275 273 271 270 269 268 268 267 266 265 264 263 262 262 262 262 262 263 263 264 265 265
308 306 305 304 303 301 300 298 295 294 293 291 289 287 284 282 280 279 277 277 276 275 274 273 272 272 271 269 267 265 264 264 264 264 263 263 263 263 263 263 263 263
307 305 303 302 300 299 298 297 296 294 293 292 291 290 288 285 283 281 279 278 277 275 274 273 272 272 272 272 271 270 268 266 265 265 264 264 264 264 264 264 264 263
306 304 304 302 301 300 299 298 298 296 294 293 292 290 288 286 285 283 281 280 278 276 275 273 272 272 272 272 272 272 272 270 269 267 266 265 265 264 264 264 264 264
310 309 308 306 305 305 304 303 302 300 299 298 296 294 292 290 288 287 285 283 280 278 277 275 273 273 272 272 272 271 271 271 270 270 269 268 267 266 265 264 263 263
317 315 312 310 309 308 306 305 304 303 302 301 298 296 294 292 289 287 286 285 283 281 279 277 275 274 272 272 272 272 271 270 270 270 270 269 269 269 269 267 265 263
318 316 314 312 311 309 308 307 306 304 303 303 300 298 296 295 293 290 287 286 284 282 281 279 277 276 273 271 270 272 272 271 270 270 270 269 269 270 271 271 268 265
320 318 317 316 314 313 311 309 308 306 304 304 302 300 299 298 296 294 291 288 286 284 282 280 279 278 275 273 271 271 272 271 271 270 269 269 269 269 270 271 270 267
321 320 320 319 318 316 313 311 309 307 305 303 301 299 298 298 298 297 294 292 290 287 284 283 283 283 281 279 276 274 273 272 272 271 270 269 269 269 269 269 270 268
319 318 319 319 318 316 314 311 308 306 304 301 299 298 296 296 297 296 295 295 295 291 287 285 285 286 288 287 282 277 274 273 272 272 272 271 270 270 269 268 269 268
Height
1462 1463 1464 1466 1467 1469 1470 1471 1473 1474 1474 1475 1476 1477 1479 1480 1481 1482 1482 1483 1483 1484 1485 1486 1487 1488 1488 1489 1489 1489 1490 1490 1491 1492 1493 1493 1493 1494 1495 1496 1497 1497
1460 1461 1463 1464 1465 1467 1468 1469 1470 1471 1472 1473 1474 1475 1476 1477 1478 1478 1479 1480 1480 1481 1482 1483 1484 1484 1485 1485 1486 1486 1486 1486 1487 1489 1489 1489 1490 1490 1491 1492 1493 1493
1458 1460 1461 1462 1463 1465 1466 1467 1468 1468 1469 1470 1471 1472 1473 1473 1474 1475 1475 1476 1477 1478 1479 1479 1480 1481 1481 1482 1482 1482 1482 1482 1483 1485 1485 1485 1486 1486 1487 1488 1488 1489
1457 1458 1459 1460 1461 1463 1464 1464 1465 1465 1466 1467 1468 1469 1469 1470 1470 1471 1472 1472 1473 1474 1475 1475 1476 1476 1477 1478 1478 1478 1478 1478 1479 1481 1480 1480 1481 1482 1482 1484 1484 1484
1455 1456 1457 1458 1459 1460 1461 1461 1462 1463 1463 1464 1465 1465 1466 1466 1467 1467 1468 1468 1469 1470 1470 1471 1471 1472 1473 1473 1474 1473 1474 1474 1475 1476 1476 1476 1477 1478 1478 1479 1479 1479
1454 1455 1455 1456 1457 1458 1459 1459 1460 1460 1461 1461 1462 1462 1463 1463 1463 1463 1464 1464 1465 1465 1466 1466 1467 1468 1468 1469 1469 1469 1469 1470 1471 1472 1471 1471 1473 1473 1474 1474 1474 1474
1451 1452 1453 1454 1455 1456 1456 1457 1458 1458 1458 1459 1459 1459 1459 1459 1459 1459 1460 1460 1461 1461 1461 1462 1462 1463 1464 1464 1464 1464 1465 1465 1466 1467 1467 1467 1468 1468 1469 1470 1470 1470
1450 1450 1451 1451 1452 1453 1453 1454 1455 1455 1455 1455 1455 1456 1456 1456 1456 1456 1456 1456 1456 1457 1457 1457 1458 1458 1459 1460 1459 1459 1460 1460 1461 1462 1462 1462 1463 1463 1464 1465 1465 1465
1449 1449 1449 1449 1450 1450 1450 1450 1451 1451 1451 1451 1451 1452 1452 1452 1452 1453 1453 1453 1452 1452 1453 1453 1453 1454 1455 1455 1454 1455 1455 1456 1456 1457 1457 1457 1458 1458 1459 1460 1460 1460
1448 1448 1448 1448 1448 1448 1448 1448 1448 1448 1448 1448 1448 1448 1448 1448 1448 1448 1449 1449 1448 1449 1449 1449 1449 1449 1450 1450 1450 1450 1450 1451 1451 1452 1452 1452 1452 1453 1454 1455 1455 1455
1447 1447 1447 1446 1446 1446 1446 1446 1446 1446 1446 1446 1446 1446 1446 1445 1445 1445 1445 1445 1445 1445 1445 1445 1445 1445 1445 1445 1445 1446 1446 1446 1446 1446 1447 1447 1447 1448 1449 1450 1450 1450
1446 1446 1446 1445 1445 1444 1444 1444 1444 1444 1444 1443 1443 1443 1443 1442 1442 1442 1442 1441 1441 1441 1441 1441 1441 1441 1441 1441 1442 1442 1442 1441 1442 1442 1442 1442 1442 1443 1444 1445 1445 1445
1446 1445 1445 1444 1443 1443 1443 1442 1442 1442 1441 1440 1440 1440 1439 1439 1439 1439 1439 1438 1438 1438 1438 1437 1437 1437 1437 1437 1438 1438 1438 1437 1437 1437 1437 1437 1437 1438 1439 1439 1439 1440
1445 1444 1444 1443 1442 1441 1441 1440 1440 1439 1438 1438 1437 1436 1436 1436 1435 1435 1435 1435 1434 1434 1434 1434 1434 1434 1434 1434 1433 1434 1434 1433 1433 1433 1433 1433 1433 1433 1434 1434 1434 1435
1444 1443 1442 1442 1441 1440 1439 1438 1437 1437 1436 1435 1434 1434 1433 1432 1432 1431 1431 1431 1431 1431 1430 1430 1430 1430 1430 1430 1429 1429 1429 1429 1429 1429 1429 1429 1428 1428 1428 1429 1429 1429
1443 1442 1441 1440 1439 1438 1437 1436 1435 1435 1434 1433 1432 1431 1431 1430 1429 1429 1428 1428 1427 1427 1427 1427 1426 1426 1426 1426 1426 1425 1425 1425 1424 1424 1424 1424 1424 1423 1423 1423 1424 1424
1441 1440 1439 1438 1437 1436 1435 1434 1433 1433 1432 1431 1430 1429 1428 1427 1427 1426 1425 1425 1424 1424 1424 1423 1423 1423 1422 1422 1422 1421 1421 1421 1420 1420 1420 1419 1419 1418 1418 1418 1419 1419
1439 1438 1436 1435 1434 1433 1432 1431 1430 1430 1429 1428 1427 1426 1425 1424 1424 1423 1422 1421 1421 1420 1420 1420 1419 1419 1418 1418 1417 1417 1417 1416 1416 1415 1415 1414 1414 1414 1413 1414 1414 1414
1436 1435 1434 1433 1432 1431 1430 1429 1428 1427 1426 1425 1424 1423 1422 1421 1420 1419 1419 1418 1417 1416 1416 1416 1416 1415 1415 1414 1413 1413 1412 1412 1411 1410 1409 1409 1409 1409 1409 1409 1409 1409
1435 1433 1432 1431 1430 1429 1427 1426 1425 1424 1423 1422 1421 1419 1418 1417 1416 1415 1415 1414 1413 1413 1412 1412 1412 1411 1411 1410 1409 1408 1408 1407 1406 1405 1404 1404 1403 1403 1403 1403 1404 1404
1432 1431 1430 1428 1427 1425 1424 1423 1421 1420 1419 1418 1416 1415 1414 1413 1412 1411 1411 1410 1409 1408 1407 1407 1407 1407 1406 1405 1405 1404 1403 1402 1401 1401 1400 1399 1398 1398 1398 1398 1398 1399
1429 1428 1426 1424 1423 1421 1419 1418 1417 1416 1414 1413 1412 1411 1410 1409 1408 1407 1407 1405 1405 1404 1403 1402 1402 1403 1402 1401 1400 1400 1399 1398 1397 1396 1395 1394 1393 1393 1393 1393 1393 1393
1426 1424 1423 1421 1419 1418 1416 1414 1413 1412 1411 1409 1408 1406 1405 1405 1404 1403 1403 1402 1401 1400 1399 1398 1397 1398 1398 1397 1396 1395 1394 1393 1392 1391 1390 1389 1389 1389 1388 1388 1388 1388
1424 1422 1420 1419 1417 1415 1414 1412 1410 1409 1408 1406 1405 1403 1402 1401 1400 1399 1398 1398 1397 1396 1395 1394 1393 1393 1393 1392 1392 1391 1390 1389 1387 1386 1385 1384 1384 1384 1384 1383 1383 1383
1422 1420 1418 1417 1415 1413 1411 1410 1408 1406 1405 1404 1402 1400 1399 1398 1396 1395 1394 1393 1393 1392 1391 1390 1389 1388 1388 1388 1387 1387 1386 1384 1383 1381 1380 1380 1379 1379 1379 1379 1378 1378
1420 1418 1416 1414 1412 1410 1409 1407 1405 1403 1402 1400 1399 1397 1396 1394 1393 1392 1390 1389 1389 1388 1388 1387 1386 1385 1384 1384 1383 1383 1382 1381 1379 1377 1376 1375 1375 1375 1374 1374 1373 1374